Location: La Trinit�
(48.1620°N, 3.4512°W)
Time: 16:40:35
(UTC+00:00)

Cosmos 2297 - Pass Details

Date: 08 May 2021
Orbit: 837 x 857 km, 71.0° (Epoch: 23 June)

Event Time Altitude Azimuth Distance (km) Brightness Sun altitude
Exits shadow 23:45:12 53° 216° (SW) 1,033 3.8 -24.2°
Maximum altitude 23:46:36 84° 297° (WNW) 860 3.6 -24.3°
Drops below altitude 10° 23:52:19 10° 27° (NNE) 2,477 6.9 -24.4°
Sets 23:54:46 0° 28° (NNE) 3,413 7.8 -24.4°
